Pratica Di Mare Airport LIRE

Flugplatz Daten

Name: Pratica Di Mare Airport

Ident: LIRE

Lat: 41,65449905

Long: 12,44519997

Platzhöhe: 41 ft

IataCode:

City: Pomezia

Metar

2021/12/03 22:55
LIRE 032255Z 02012KT CAVOK 08/06 Q1011 RMK SKC VIS MIN 9999 WIND THR13 02011KT WIND THR31 /////KT BLU

Taf

Gewünschte Webcam nicht vorhanden? Dann fügen Sie eine hinzu. Sie wird dann so schnell wie möglich freigeschaltet
Url: Title: